Location: Hormuz
(27.0871°N, 56.4580°E)
Time: 17:03:30
(UTC+04:30)

Envisat - Visible Passes

Search period start: 18 June 2021 00:00
Search period end: 28 June 2021 00:00
Orbit: 764 x 766 km, 98.1° (Epoch: 18 June)

Date Brightness Start Highest point End Pass type
(mag) Time Alt. Az. Time Alt. Az. Time Alt. Az.
18 Jun 5.6 04:58:32 10° NE 05:01:45 17° E 05:04:56 10° SE visible
21 Jun 5.8 04:48:09 10° ENE 04:50:12 12° E 04:52:14 10° ESE visible
23 Jun 5.3 05:11:36 10° NE 05:15:42 24° E 05:19:46 10° SSE visible
26 Jun 5.6 05:00:42 10° NE 05:04:11 18° E 05:07:38 10° SE visible
